TimeCST,TemperatureF,Dew PointF,Humidity,Sea Level PressureIn,VisibilityMPH,Wind Direction,Wind SpeedMPH,Gust SpeedMPH,PrecipitationIn,Events,Conditions,WindDirDegrees,DateUTC
12:52 AM,35.1,27.0,72,30.12,10.0,NNW,3.5,-,N/A,,Mostly Cloudy,340,2012-12-04 06:52:00
1:52 AM,35.1,26.1,70,30.12,10.0,NW,3.5,-,N/A,,Scattered Clouds,320,2012-12-04 07:52:00
2:52 AM,33.1,26.1,75,30.14,10.0,Calm,Calm,-,N/A,,Scattered Clouds,0,2012-12-04 08:52:00
3:52 AM,30.0,26.1,85,30.16,10.0,Calm,Calm,-,N/A,,Scattered Clouds,0,2012-12-04 09:52:00
4:52 AM,30.9,24.1,76,30.18,10.0,Calm,Calm,-,N/A,,Partly Cloudy,0,2012-12-04 10:52:00
5:52 AM,28.9,23.0,78,30.20,10.0,ESE,3.5,-,N/A,,Partly Cloudy,120,2012-12-04 11:52:00
6:52 AM,30.0,24.1,79,30.23,10.0,SE,4.6,-,N/A,,Partly Cloudy,140,2012-12-04 12:52:00
7:52 AM,30.0,24.1,79,30.26,10.0,Calm,Calm,-,N/A,,Partly Cloudy,0,2012-12-04 13:52:00
8:52 AM,34.0,27.0,75,30.26,10.0,SSE,5.8,-,N/A,,Partly Cloudy,150,2012-12-04 14:52:00
9:52 AM,41.0,28.0,60,30.27,10.0,SE,4.6,-,N/A,,Partly Cloudy,140,2012-12-04 15:52:00
10:52 AM,46.0,26.1,46,30.28,10.0,Calm,Calm,-,N/A,,Partly Cloudy,0,2012-12-04 16:52:00
11:52 AM,50.0,27.0,41,30.27,10.0,Calm,Calm,-,N/A,,Partly Cloudy,0,2012-12-04 17:52:00
12:52 PM,55.9,24.1,29,30.25,10.0,SW,3.5,-,N/A,,Scattered Clouds,230,2012-12-04 18:52:00
1:52 PM,57.0,26.1,30,30.25,10.0,South,3.5,-,N/A,,Scattered Clouds,190,2012-12-04 19:52:00
2:52 PM,60.1,24.1,25,30.23,10.0,Calm,Calm,-,N/A,,Scattered Clouds,0,2012-12-04 20:52:00
3:52 PM,59.0,26.1,28,30.24,10.0,NNE,3.5,-,N/A,,Partly Cloudy,20,2012-12-04 21:52:00
4:52 PM,53.6,24.8,33,30.25,10.0,NNE,4.6,-,N/A,,Partly Cloudy,30,2012-12-04 22:52:00
5:52 PM,46.0,25.0,44,30.27,10.0,Calm,Calm,-,N/A,,Partly Cloudy,0,2012-12-04 23:52:00
6:52 PM,42.1,30.0,62,30.29,10.0,Calm,Calm,-,N/A,,Scattered Clouds,0,2012-12-05 00:52:00
7:52 PM,37.9,25.0,60,30.30,10.0,NW,3.5,-,N/A,,Clear,310,2012-12-05 01:52:00
8:52 PM,36.0,26.1,67,30.30,10.0,NW,3.5,-,N/A,,Mostly Cloudy,310,2012-12-05 02:52:00
9:52 PM,36.0,25.0,64,30.32,10.0,NW,5.8,-,N/A,,Mostly Cloudy,310,2012-12-05 03:52:00
10:52 PM,33.1,23.0,66,30.32,10.0,North,4.6,-,N/A,,Scattered Clouds,350,2012-12-05 04:52:00
11:52 PM,32.0,24.1,73,30.32,10.0,NNW,3.5,-,N/A,,Scattered Clouds,340,2012-12-05 05:52:00